This demonstration page uses our WeatherBlox Daily Observations layout. Learn more.

Left ArrowRight Arrow

39.12711, -84.51439

Hourly Observations for May 17, 2022

Temp ( °F °C ) Dew Point ( °F °C ) Humidity (%) Winds ( mph kmh ) Pressure ( in mb ) Visibility ( mi km ) Precip ( " mm )
12:53 am 00:53 Clear 56 13.3 52 11.1 87 87 SSW 5 7 29.92 1013 10 16 0.00 0.00
1:53 am 01:53 Clear 54 12.2 52 11.1 93 93 Calm 29.92 1013 10 16 0.00 0.00
2:53 am 02:53 Clear 52 11.1 52 11.1 100 100 Calm 29.92 1013 10 16 0.00 0.00
3:53 am 03:53 Clear 52 11.1 52 11.1 100 100 Calm 29.91 1013 10 16 0.00 0.00
4:53 am 04:53 Clear 51 10.6 51 10.6 100 100 Calm 29.92 1013 9 14 0.00 0.00
5:53 am 05:53 Clear 50 10 50 10 100 100 Calm 29.93 1014 9 14 0.00 0.00
6:25 am 06:25 Sunny with Mist and Fog 49 9.4 49 9.4 100 100 NE 3 6 29.96 1015 2 3 0.00 0.00
6:33 am 06:33 Sunny with Mist and Fog 50 10 50 10 100 100 NE 3 6 29.96 1014 1 1 0.00 0.00
6:37 am 06:37 Sunny with Mist and Fog 50 10 50 10 100 100 Calm 29.96 1014 3 5 0.00 0.00
6:53 am 06:53 Sunny 50 10 50 10 100 100 Calm 29.95 1014 9 14 0.00 0.00
7:53 am 07:53 Sunny 55 12.8 53 11.7 93 93 Calm 29.96 1015 10 16 0.00 0.00
8:53 am 08:53 Sunny 64 17.8 53 11.7 68 68 S 5 7 29.97 1015 10 16 0.00 0.00
9:53 am 09:53 Sunny 70 21.1 52 11.1 53 53 WSW 7 11 29.98 1015 10 16 0.00 0.00
10:53 am 10:53 Sunny 73 22.8 53 11.7 50 50 SW 6 9 29.99 1016 10 16 0.00 0.00
11:53 am 11:53 Sunny 77 25 54 12.2 45 45 W 7 11 30.00 1016 10 16 0.00 0.00
12:53 pm 12:53 Sunny 79 26.1 48 8.9 34 34 W 17 28 29.99 1016 10 16 0.00 0.00
1:53 pm 13:53 Sunny 80 26.7 49 9.4 34 34 W 20 31 29.98 1015 10 16 0.00 0.00
2:53 pm 14:53 Mostly Sunny 81 27.2 50 10 34 34 WNW 17 28 29.98 1015 10 16 0.00 0.00
3:53 pm 15:53 Mostly Sunny 81 27.2 50 10 34 34 N 13 20 29.97 1015 10 16 0.00 0.00
4:53 pm 16:53 Sunny 82 27.8 49 9.4 32 32 NNW 13 20 29.96 1015 10 16 0.00 0.00
5:53 pm 17:53 Sunny 81 27.2 48 8.9 32 32 NNW 9 15 29.96 1015 10 16 0.00 0.00
6:53 pm 18:53 Sunny 78 25.6 48 8.9 35 35 NNW 3 6 29.96 1015 10 16 0.00 0.00
7:53 pm 19:53 Sunny 77 25 47 8.3 35 35 N 8 13 29.96 1015 10 16 0.00 0.00
8:53 pm 20:53 Clear 70 21.1 50 10 49 49 Calm 29.98 1015 10 16 0.00 0.00
9:53 pm 21:53 Clear 62 16.7 54 12.2 75 75 Calm 29.99 1016 10 16 0.00 0.00
10:53 pm 22:53 Clear 61 16.1 53 11.7 75 75 Calm 30.00 1016 10 16 0.00 0.00
11:53 pm 23:53 Clear 59 15 53 11.7 81 81 Calm 30.02 1017 10 16 0.00 0.00

Powered by AerisWeather